This demonstration page uses our WeatherBlox Daily Observations layout. Learn more.

Left ArrowRight Arrow

39.51506, -84.39828

Hourly Observations for January 9, 2019

Temp ( °F °C ) Dew Point ( °F °C ) Humidity (%) Winds ( mph kmh ) Pressure ( in mb ) Visibility ( mi km ) Precip ( " mm )
12:15 am 00:15 Cloudy 42 5.3 26 -3.5 53 53 WSW 12 19 30.00 1016 10 16 0.00 0.00
12:35 am 00:35 Cloudy 42 5.4 25 -3.8 52 52 WSW 15 24 30.00 1016 10 16 0.00 0.00
12:55 am 00:55 Cloudy 42 5.3 26 -3.6 53 53 WSW 10 17 30.00 1016 10 16 0.00 0.00
1:15 am 01:15 Cloudy 41 5.2 25 -3.7 53 53 W 9 15 30.00 1016 10 16 0.00 0.00
1:35 am 01:35 Cloudy 41 5.1 26 -3.4 55 55 W 10 17 30.00 1016 10 16 0.00 0.00
1:55 am 01:55 Cloudy 41 4.9 26 -3.4 55 55 W 13 20 30.00 1016 10 16 0.00 0.00
2:15 am 02:15 Cloudy 39 4.1 25 -4.1 56 56 WNW 18 30 30.03 1017 10 16 0.00 0.00
2:35 am 02:35 Mostly Cloudy 38 3.1 22 -5.5 54 54 W 21 33 30.06 1018 10 16 0.00 0.00
2:55 am 02:55 Mostly Cloudy 36 2.4 24 -4.4 61 61 W 15 24 30.06 1018 10 16 0.00 0.00
3:15 am 03:15 Cloudy 35 1.7 21 -6.3 56 56 WNW 20 31 30.06 1018 10 16 0.00 0.00
3:35 am 03:35 Partly Cloudy 33 0.4 20 -6.8 59 59 W 16 26 30.09 1019 10 16 0.00 0.00
3:50 am 03:50 Cloudy 33 0.4 19 -7.1 58 58 W 17 28 30.09 1019 10 16 0.00 0.00
4:15 am 04:15 Cloudy 32 0.1 20 -6.7 61 61 W 17 28 30.09 1019 10 16 0.00 0.00
4:35 am 04:35 Cloudy 31 -0.5 19 -7.1 61 61 WNW 18 30 30.09 1019 10 16 0.00 0.00
4:55 am 04:55 Cloudy 30 -1.1 17 -8.1 59 59 W 16 26 30.09 1019 10 16 0.00 0.00
5:15 am 05:15 Cloudy 29 -1.4 17 -8.3 60 60 WNW 17 28 30.09 1019 10 16 0.00 0.00
5:35 am 05:35 Cloudy 29 -1.5 17 -8.4 60 60 WNW 18 30 30.09 1019 10 16 0.00 0.00
5:55 am 05:55 Cloudy 29 -1.6 17 -8.3 61 61 WNW 21 33 30.12 1020 10 16 0.00 0.00
6:15 am 06:15 Cloudy 29 -1.6 17 -8.3 61 61 WNW 18 30 30.12 1020 10 16 0.00 0.00
6:35 am 06:35 Cloudy 29 -1.7 17 -8.3 61 61 WNW 18 30 30.12 1020 10 16 0.00 0.00
6:55 am 06:55 Cloudy 28 -2.1 17 -8.3 63 63 W 18 30 30.12 1020 10 16 0.00 0.00
7:15 am 07:15 Cloudy 28 -2.3 17 -8.2 64 64 W 14 22 30.15 1021 10 16 0.00 0.00
7:35 am 07:35 Cloudy 28 -2.3 17 -8.3 64 64 W 15 24 30.15 1021 10 16 0.00 0.00
7:55 am 07:55 Cloudy 28 -2.5 17 -8.5 64 64 W 12 19 30.15 1021 10 16 0.00 0.00
8:15 am 08:15 Cloudy 27 -2.6 17 -8.5 64 64 W 13 20 30.15 1021 10 16 0.00 0.00
8:35 am 08:35 Cloudy with Light Snow 27 -2.7 17 -8.2 66 66 WNW 13 20 30.18 1022 10 16 0.00 0.00
8:55 am 08:55 Cloudy with Light Snow 27 -2.9 16 -8.7 65 65 W 10 17 30.18 1022 10 16 0.00 0.00
9:15 am 09:15 Cloudy 27 -2.9 15 -9.6 60 60 W 13 20 30.18 1022 10 16 0.00 0.00
9:35 am 09:35 Cloudy 26 -3.2 14 -9.9 60 60 WNW 16 26 30.21 1023 10 16 0.00 0.00
9:55 am 09:55 Cloudy 26 -3.3 14 -9.9 61 61 W 15 24 30.21 1023 10 16 0.00 0.00
10:15 am 10:15 Cloudy 27 -3 15 -9.7 60 60 W 15 24 30.21 1023 10 16 0.00 0.00
10:35 am 10:35 Cloudy 27 -2.7 15 -9.3 61 61 W 14 22 30.21 1023 10 16 0.00 0.00
10:55 am 10:55 Cloudy 28 -2.4 15 -9.5 59 59 W 16 26 30.21 1023 10 16 0.00 0.00
11:15 am 11:15 Mostly Cloudy 28 -2.3 15 -9.5 58 58 W 14 22 30.21 1023 10 16 0.00 0.00
11:35 am 11:35 Mostly Cloudy 27 -2.6 14 -10.2 56 56 W 13 20 30.21 1023 10 16 0.00 0.00
11:55 am 11:55 Cloudy 28 -2.1 13 -10.6 53 53 W 12 19 30.21 1023 10 16 0.00 0.00
12:15 pm 12:15 Cloudy 28 -2 14 -10.2 54 54 W 13 20 30.21 1023 10 16 0.00 0.00
12:35 pm 12:35 Cloudy 28 -2.3 13 -10.3 55 55 WNW 13 20 30.21 1023 10 16 0.00 0.00
12:55 pm 12:55 Cloudy 28 -2.4 14 -10.2 55 55 WNW 18 30 30.18 1022 10 16 0.00 0.00
1:15 pm 13:15 Cloudy 27 -2.8 14 -10.2 57 57 W 16 26 30.21 1023 10 16 0.00 0.00
1:35 pm 13:35 Cloudy 27 -2.9 13 -10.3 57 57 WNW 18 30 30.21 1023 10 16 0.00 0.00
1:55 pm 13:55 Cloudy with Light Snow 27 -3 14 -10.1 58 58 WNW 15 24 30.21 1023 10 16 0.00 0.00
2:15 pm 14:15 Cloudy 26 -3.2 13 -10.4 58 58 W 12 19 30.21 1023 10 16 0.00 0.00
2:35 pm 14:35 Cloudy 26 -3.4 12 -10.9 57 57 WNW 18 30 30.24 1024 10 16 0.00 0.00
2:55 pm 14:55 Cloudy 26 -3.5 12 -11 56 56 W 15 24 30.24 1024 10 16 0.00 0.00
3:15 pm 15:15 Cloudy 25 -3.7 13 -10.4 60 60 W 15 24 30.24 1024 10 16 0.00 0.00
3:35 pm 15:35 Cloudy 25 -3.7 12 -10.9 58 58 W 15 24 30.24 1024 10 16 0.00 0.00
3:55 pm 15:55 Cloudy 25 -3.9 13 -10.6 60 60 W 14 22 30.24 1024 10 16 0.00 0.00
4:15 pm 16:15 Cloudy 25 -4.1 12 -11 59 59 WNW 14 22 30.24 1024 10 16 0.00 0.00
4:35 pm 16:35 Cloudy 25 -4.1 12 -10.9 60 60 W 13 20 30.27 1025 10 16 0.00 0.00
4:55 pm 16:55 Cloudy with Light Snow 24 -4.2 12 -10.9 60 60 W 13 20 30.27 1025 10 16 0.00 0.00
5:15 pm 17:15 Cloudy with Light Snow 24 -4.3 13 -10.7 61 61 WNW 15 24 30.27 1025 10 16 0.00 0.00
5:35 pm 17:35 Cloudy 24 -4.2 13 -10.3 63 63 WNW 12 19 30.27 1025 10 16 0.00 0.00
5:55 pm 17:55 Cloudy with Light Snow 24 -4.3 14 -10.1 64 64 W 9 15 30.27 1025 10 16 0.00 0.00
6:15 pm 18:15 Cloudy with Light Snow 24 -4.5 14 -9.9 66 66 W 8 13 30.27 1025 10 16 0.00 0.00
6:35 pm 18:35 Cloudy with Light Snow 24 -4.5 14 -9.8 67 67 W 14 22 30.27 1025 10 16 0.00 0.00
6:55 pm 18:55 Cloudy 24 -4.5 14 -10 66 66 WNW 7 11 30.27 1025 10 16 0.00 0.00
7:15 pm 19:15 Cloudy with Light Snow 24 -4.7 15 -9.6 69 69 WNW 10 17 30.27 1025 10 16 0.00 0.00
7:35 pm 19:35 Cloudy 24 -4.7 15 -9.6 69 69 WNW 8 13 30.27 1025 10 16 0.00 0.00
7:55 pm 19:55 Cloudy 24 -4.5 14 -10.1 65 65 WNW 12 19 30.30 1026 10 16 0.00 0.00
8:15 pm 20:15 Cloudy 24 -4.5 14 -10 66 66 WNW 7 11 30.30 1026 10 16 0.00 0.00
8:35 pm 20:35 Cloudy 24 -4.7 14 -10.2 66 66 WNW 14 22 30.30 1026 10 16 0.00 0.00
8:55 pm 20:55 Cloudy 24 -4.6 12 -11.3 60 60 NW 10 17 30.30 1026 10 16 0.00 0.00
9:15 pm 21:15 Cloudy with Light Snow 24 -4.7 12 -10.9 62 62 WNW 10 17 30.30 1026 10 16 0.00 0.00
9:35 pm 21:35 Cloudy with Light Snow 23 -5.1 14 -9.8 70 70 NW 10 17 30.33 1027 7 11 0.00 0.00
9:55 pm 21:55 Cloudy with Light Snow 23 -5.1 14 -10.2 68 68 NW 10 17 30.33 1027 10 16 0.00 0.00
10:15 pm 22:15 Cloudy with Light Snow 23 -5 13 -10.6 65 65 NW 12 19 30.36 1028 10 16 0.00 0.00
10:35 pm 22:35 Cloudy 23 -5 12 -11.3 62 62 NW 10 17 30.36 1028 10 16 0.00 0.00
10:55 pm 22:55 Cloudy 23 -5 11 -11.5 61 61 NW 8 13 30.36 1028 10 16 0.00 0.00
11:15 pm 23:15 Cloudy 23 -5.1 11 -11.8 60 60 NW 13 20 30.36 1028 10 16 0.00 0.00
11:35 pm 23:35 Cloudy with Light Snow 23 -5.2 11 -11.8 60 60 NW 13 20 30.36 1028 10 16 0.00 0.00
11:55 pm 23:55 Cloudy with Light Snow 23 -5.1 11 -11.5 61 61 NNW 12 19 30.36 1028 10 16 0.00 0.00

Powered by AerisWeather